Tracking 30970 objects as of 3-Jul-2025
HD Live streaming from Space Station
objects crossing your sky now

STARLINK-31381

Track STARLINK-31381 now!
10-day predictions


NORAD ID: 59469
Int'l Code: 2024-068Q
Perigee: 489.2 km
Apogee: 491.1 km
Inclination: 43.0 °
Period: 94.3 minutes
Semi major axis: 6861 km
RCS: Unknown
Launch date: April 10, 2024
Source: United States (US)
Launch site: AIR FORCE EASTERN TEST RANGE (AFETR)
Your satellite tracking list
Your tracking list is empty




NASA's NSSDC Master Catalog

Two Line Element Set (TLE):
1 59469U 24068Q   25183.86167748 -.00003345  00000-0 -11201-3 0  9994
2 59469  43.0007   2.0523 0001385 273.2961  86.7732 15.27599459 70352
Source of the keplerian elements: AFSPC